Location: ????? ??????
(37.8317°N, 23.8750°E)
Time: 13:14:57
(UTC+00:00)

USA 267 - Pass Details

Date: 20 January 2021
Orbit: 1099 x 1108 km, 123.0° (Epoch: 03 March)

Event Time Altitude Azimuth Distance (km) Brightness Sun altitude
Exits shadow 18:04:18 59° 23° (NNE) 1,257 3.3 -29.3°
Maximum altitude 18:05:35 76° 318° (NW) 1,133 3.2 -29.5°
Drops below altitude 10° 18:12:05 10° 234° (SW) 2,954 6.1 -30.8°
Sets 18:14:34 0° 233° (SW) 3,910 6.9 -31.3°
